Location: Branche des Alpilles
(43.6087°N, 4.6976°E)
Time: 21:49:23
(UTC+00:00)

N. Korean satellite - Pass Details

Date: 30 September 2021
Orbit: 450 x 495 km, 97.3° (Epoch: 23 October)

Event Time Altitude Azimuth Distance (km) Brightness Sun altitude
Rises 04:19:26 0° 24° (NNE) 2,546 10.7 -14.9°
Reaches altitude 10° 04:21:44 10° 38° (NE) 1,670 10.0 -14.5°
Maximum altitude 04:24:47 26° 96° (E) 1,001 9.0 -14.0°
Drops below altitude 10° 04:27:50 10° 154° (SSE) 1,676 9.5 -13.4°
Sets 04:30:09 0° 167° (SSE) 2,557 10.3 -13.0°
